Location: Pettit
(39.0209°N, 79.7181°W)
Time: 20:24:39
(UTC+00:00)

ACS3 Solar Sail - Pass Details

Date: 22 April 2026
Orbit: 894 x 947 km, 97.2° (Epoch: 12 May)

Event Time Altitude Azimuth Distance (km) Brightness Sun altitude
Rises 08:10:46 0° 350° (N) 3,552 5.2 -24.8°
Reaches altitude 10° 08:14:40 10° 324° (NW) 2,617 4.1 -24.2°
Maximum altitude 08:17:06 13° 299° (WNW) 2,421 3.7 -23.8°
Enters shadow 08:17:07 13° 299° (WNW) 2,421 3.7 -23.8°
